Create Custom Reports and Graphics: Custom Report

Alpine-Summit 8643' (Ward Mt.)

Current Conditions

10/27/20 7:15 PM (-07:00)
Updated Every 15 Minutes
Temp 42.0 °F   12.0
RH 38 %   11
Wet Bulb 32.4 °F   10.8
Dew Pt 18.3 °F   17.9
Wind Spd 59.8 mph   1.8
Wind Dir E | 82 °
Wind Gust 71.4 mph   1.8
WindChill 27.6 °F   16.9

Last 6 Hours

Alpine-Summit 8643' (Ward Mt.)

15 Minute Data | America/Los_Angeles
as of 10/27/20 7:30 PM PDT
Date & Time Temp (°F) RH (%) Dew Pt (°F) Wet Bulb (°F) Wind Dir (°) Wind Spd (mph) Wind Gust (mph) WindChill (°F)
10/27/20 - 1915 42.0 38 18.3 32.4 E | 82 59.8 71.4 27.6
10/27/20 - 1900 42.1 40 19.5 32.8 E | 80 58.5 74.6 28.3
10/27/20 - 1845 42.7 29 12.9 31.4 E | 81 59.6 73.5 28.7
10/27/20 - 1830 42.9 30 13.8 31.7 E | 81 58.3 71.7 29.4
10/27/20 - 1815 43.4 32 15.3 32.4 E | 79 55.6 68.8 30.4
10/27/20 - 1800 43.9 33 16.9 33.0 ENE | 78 50.9 60.7 31.5
10/27/20 - 1745 44.4 41 22.3 34.8 E | 81 49.3 58.2 32.9
10/27/20 - 1730 45.5 37 20.8 34.9 E | 82 51.0 59.5 34.8
10/27/20 - 1715 47.0 31 18.2 35.0 E | 80 50.3 59.4 35.9
10/27/20 - 1700 47.4 27 15.4 34.5 ENE | 78 51.2 60.7 36.5
10/27/20 - 1645 48.0 24 12.8 34.2 E | 82 53.6 66.1 36.9
10/27/20 - 1630 48.0 27 15.8 34.9 E | 81 49.9 58.7 37.1
10/27/20 - 1615 48.2 26 14.6 34.7 E | 84 52.5 62.6 36.7
10/27/20 - 1600 47.7 28 15.9 34.8 E | 85 52.7 61.5 36.7
10/27/20 - 1545 48.1 31 19.2 35.8 E | 85 53.4 61.0 36.3
10/27/20 - 1530 47.6 34 20.5 35.9 E | 84 54.0 61.6 35.8
10/27/20 - 1515 47.2 38 22.8 36.5 E | 82 50.4 59.4 35.8
10/27/20 - 1500 46.9 42 24.8 36.9 E | 83 51.4 59.8 35.2
10/27/20 - 1445 47.0 43 25.9 37.3 E | 81 49.8 59.7 35.2
10/27/20 - 1430 45.8 43 24.5 36.3 E | 84 56.6 66.4 33.1
10/27/20 - 1415 45.6 45 25.4 36.5 E | 86 60.3 71.7 32.8
10/27/20 - 1400 45.5 46 26.0 36.6 E | 86 58.2 68.1 32.9
10/27/20 - 1345 45.3 47 26.1 36.6 E | 86 60.8 73.2 31.2
Max 48.2 47 26.1 37.3 - 60.8 74.6 37.1
Avg 45.7 35 19.5 34.8 - 54.3 64.7 33.6
Min 42.0 24 12.8 31.4 - 49.3 58.2 27.6

Last 30 Days

Alpine-Summit 8643' (Ward Mt.)

Daily Data | America/Los_Angeles
as of 10/27/20 7:30 PM PDT
Date Daily Max Temp (°F) Time of Max Temp Daily Min Temp (°F) Time of Min Temp Wind Spd (mph) Daily Max Wind (mph) Max RH (%) Min RH (%) Wet Bulb (°F)
10/26/20 37.1 1605 15.3 0329 61.0 119.2 76 13 18.6
10/25/20 38.6 1337 17.1 2325 40.4 117.0 72 25 26.2
10/24/20 52.7 1449 37.2 2321 27.3 45.6 70 27 35.0
10/23/20 56.6 1553 35.9 0108 19.6 43.4 77 26 38.0
10/22/20 60.5 1559 36.6 2359 12.2 23.3 74 28 37.2
10/21/20 62.1 1547 47.8 2359 20.7 46.6 45 22 39.3
10/20/20 68.1 1604 46.9 0509 19.0 37.1 45 14 40.0
10/19/20 65.7 1532 48.0 0720 15.4 30.0 45 20 40.3
10/18/20 63.1 1623 49.4 2328 19.4 46.2 47 10 40.4
10/17/20 67.4 1617 50.5 0054 15.6 47.3 32 10 40.1
10/16/20 66.5 1455 42.2 0451 26.4 47.1 52 18 38.3
10/15/20 60.4 1533 44.3 2359 27.3 48.3 53 30 41.0
10/14/20 71.6 1626 50.3 2323 15.6 31.5 46 21 45.1
10/13/20 52.4 0000 52.3 2359 7.2 8.3 31 29 38.7
10/12/20 52.0 2343 51.9 2359 12.1 13.9 23 23 36.8
10/11/20 49.0 2330 48.4 2359 3.3 8.5 35 26 36.1
10/10/20 37.9 2354 37.8 2351 40.3 44.8 99 99 37.7
10/9/20 43.0 2359 43.0 2359 27.8 29.3 57 57 36.4
10/8/20 49.3 2352 49.0 2358 18.4 20.0 26 25 35.4
10/7/20 53.4 2359 53.4 2359 16.6 18.6 16 15 36.0
10/6/20 55.5 2359 55.3 2355 9.0 10.5 22 22 38.9
10/5/20 53.9 2356 53.8 2359 9.0 9.6 29 29 39.6
10/4/20 53.1 2359 52.9 2356 29.0 32.5 20 20 36.9
9/30/20 56.4 0000 56.3 2359 31.6 33.9 33 32 42.2
9/28/20 62.4 1714 42.9 0655 43.2 76.7 55 22 39.2
9/27/20 58.3 1701 44.8 0706 47.8 72.9 72 33 41.9
Max 71.6 - 56.3 - 61.0 119.2 99 99 45.1
Avg - - - - 23.7 - - - 37.5
Min 37.1 - 15.3 - 3.3 8.3 16 10 18.6
Calm: 0.0%
Calm: 0.0%